This is the latest recevied weather packets stored in our database for station/object KI7MOQ. If no packets are shown the sender has not sent any weather packets the latest 10 day(s).
| Time | Temp. | Humidity | Pressure | Rain* | Wind** | Luminosity | Snow |
|---|---|---|---|---|---|---|---|
| 1778102127 | 18.33° C | 70% | 1023.3 hPa | 0 mm | - | 131 W/m² | - |
| 1778101824 | 18.33° C | 71% | 1023.3 hPa | 0 mm | - | 120 W/m² | - |
| 1778101521 | 18.33° C | 71% | 1023.3 hPa | 0 mm | - | 158 W/m² | - |
| 1778101217 | 18.33° C | 71% | 1023.3 hPa | 0 mm | - | 130 W/m² | - |
| 1778100914 | 17.78° C | 73% | 1023.4 hPa | 0 mm | - | 161 W/m² | - |
| 1778100609 | 17.22° C | 73% | 1023.4 hPa | 0 mm | - | 144 W/m² | - |
| 1778100308 | 17.22° C | 75% | 1023.4 hPa | 0 mm | - | 134 W/m² | - |
| 1778100004 | 17.22° C | 74% | 1023.4 hPa | 0 mm | - | 112 W/m² | - |
| 1778099702 | 17.22° C | 74% | 1023.4 hPa | 0 mm | - | 149 W/m² | - |
| 1778099399 | 16.67° C | 75% | 1023.6 hPa | 0 mm | - | 116 W/m² | - |
| 1778099096 | 16.67° C | 75% | 1023.5 hPa | 0 mm | - | 111 W/m² | - |
| 1778098792 | 16.67° C | 75% | 1023.4 hPa | 0 mm | - | 136 W/m² | - |
| 1778098490 | 16.67° C | 75% | 1023.3 hPa | 0 mm | - | 156 W/m² | - |
| 1778098186 | 16.67° C | 75% | 1023.3 hPa | 0 mm | - | 135 W/m² | - |
| 1778097883 | 16.67° C | 75% | 1023.5 hPa | 0 mm | - | 124 W/m² | - |
| 1778097579 | 16.11° C | 77% | 1023.5 hPa | 0 mm | - | 133 W/m² | - |
| 1778097276 | 16.11° C | 77% | 1023.4 hPa | 0 mm | - | 108 W/m² | - |
| 1778096972 | 15.56° C | 78% | 1023.6 hPa | 0 mm | - | 93 W/m² | - |
| 1778096670 | 15.56° C | 78% | 1023.5 hPa | 0 mm | - | 110 W/m² | - |
| 1778096367 | 15.56° C | 78% | 1023.7 hPa | 0 mm | - | 90 W/m² | - |
| 1778096064 | 15.56° C | 78% | 1023.8 hPa | 0 mm | - | 83 W/m² | - |
| 1778095760 | 15.56° C | 78% | 1023.7 hPa | 0 mm | - | 82 W/m² | - |
| 1778095457 | 15.56° C | 78% | 1023.8 hPa | 0 mm | - | 84 W/m² | - |
| 1778095155 | 15.56° C | 77% | 1023.8 hPa | 0 mm | - | 71 W/m² | - |
| 1778094851 | 15.56° C | 78% | 1023.7 hPa | 0 mm | - | 76 W/m² | - |
* Rain latest hour (hover to see other rain measurements)
** Current wind speed in m/s (hover to see current wind gust speed)